| time (UTC) | temp F | wind direction | speed MPH | gust MPH | rain 1hr in | rain 24hr in | rain mn in | humidity % | barometer mb |
| 20260905153833 | 91 | 157 | 1.0 | 4.0 | 0.00 | 2.41 | 0.01 | 81 | 1015.8 |
| 20260905153333 | 90 | 214 | 1.0 | 7.0 | 0.00 | 2.41 | 0.01 | 82 | 1015.8 |
| 20260905153056 | 89 | 134 | 1.0 | 7.0 | 0.00 | 2.41 | 0.01 | 82 | 1015.8 |
| 20260905152833 | 90 | 129 | 3.0 | 7.0 | 0.00 | 2.41 | 0.01 | 81 | 1015.9 |
| 20260905152331 | 89 | 161 | 0.0 | 0.0 | 0.00 | 2.41 | 0.01 | 83 | 1015.9 |
| 20260905151829 | 89 | 161 | 0.0 | 0.0 | 0.00 | 2.41 | 0.01 | 82 | 1015.8 |
| 20260905151545 | 88 | 161 | 0.0 | 0.0 | 0.00 | 2.41 | 0.01 | 82 | 1015.7 |
| 20260905151329 | 89 | 161 | 0.0 | 0.0 | 0.00 | 2.41 | 0.01 | 82 | 1015.8 |
| 20260905150826 | 90 | 161 | 0.0 | 0.0 | 0.00 | 2.41 | 0.01 | 82 | 1015.8 |
| 20260905150323 | 90 | 136 | 0.0 | 1.0 | 0.00 | 2.41 | 0.01 | 82 | 1015.7 |
| 20260905150031 | 90 | 134 | 0.0 | 4.0 | 0.00 | 2.41 | 0.01 | 81 | 1015.6 |
| 20260905145841 | 90 | 134 | 0.0 | 4.0 | 0.00 | 2.41 | 0.01 | 81 | 1015.9 |
| 20260905145337 | 91 | 130 | 1.0 | 4.0 | 0.00 | 2.41 | 0.01 | 81 | 1015.8 |
| 20260905144834 | 90 | 148 | 1.0 | 6.0 | 0.00 | 2.41 | 0.01 | 81 | 1015.7 |
| 20260905144532 | 89 | 146 | 3.0 | 6.0 | 0.00 | 2.41 | 0.01 | 81 | 1015.6 |
| 20260905144333 | 90 | 151 | 3.0 | 6.0 | 0.00 | 2.41 | 0.01 | 81 | 1015.7 |
| 20260905143830 | 91 | 148 | 2.0 | 4.0 | 0.00 | 2.41 | 0.01 | 81 | 1015.6 |
| 20260905143343 | 91 | 122 | 0.0 | 4.0 | 0.00 | 2.41 | 0.01 | 81 | 1015.5 |
| 20260905143101 | 91 | 143 | 0.0 | 4.0 | 0.00 | 2.41 | 0.01 | 81 | 1015.4 |
| 20260905143003 | 91 | 113 | 1.0 | 4.0 | 0.00 | 2.41 | 0.01 | 81 | 1015.4 |
| 20260905142821 | 91 | 152 | 2.0 | 4.0 | 0.00 | 2.41 | 0.01 | 81 | 1015.5 |
| 20260905142337 | 90 | 159 | 0.0 | 3.0 | 0.00 | 2.41 | 0.01 | 82 | 1015.6 |
| 20260905141836 | 90 | 356 | 0.0 | 0.0 | 0.00 | 2.41 | 0.01 | 83 | 1015.5 |
| 20260905141504 | 89 | 143 | 0.0 | 0.0 | 0.00 | 2.41 | 0.01 | 83 | 1015.4 |
| 20260905141332 | 89 | 143 | 0.0 | 0.0 | 0.00 | 2.41 | 0.01 | 83 | 1015.5 |
| 20260905140830 | 88 | 144 | 0.0 | 1.0 | 0.00 | 2.41 | 0.01 | 83 | 1015.5 |
| 20260905140326 | 87 | 144 | 0.0 | 1.0 | 0.00 | 2.41 | 0.01 | 83 | 1015.7 |
| 20260905140051 | 87 | 144 | 0.0 | 1.0 | 0.00 | 2.41 | 0.01 | 83 | 1015.5 |
| 20260905135824 | 88 | 138 | 0.0 | 2.0 | 0.00 | 2.41 | 0.01 | 83 | 1015.6 |
| 20260905135322 | 88 | 124 | 0.0 | 3.0 | 0.00 | 2.41 | 0.01 | 83 | 1015.7 |
| 20260905134817 | 89 | 119 | 1.0 | 5.0 | 0.00 | 2.41 | 0.01 | 83 | 1015.6 |
| 20260905134516 | 89 | 133 | 1.0 | 5.0 | 0.00 | 2.41 | 0.01 | 83 | 1015.6 |
| 20260905134334 | 90 | 147 | 1.0 | 3.0 | 0.00 | 2.41 | 0.01 | 82 | 1015.7 |
| 20260905133853 | 90 | 144 | 1.0 | 3.0 | 0.00 | 2.41 | 0.01 | 83 | 1015.7 |
| 20260905133328 | 89 | 173 | 0.0 | 4.0 | 0.00 | 2.41 | 0.01 | 83 | 1015.7 |
| 20260905133040 | 88 | 112 | 1.0 | 4.0 | 0.00 | 2.41 | 0.01 | 83 | 1015.6 |
| 20260905132824 | 89 | 148 | 2.0 | 4.0 | 0.00 | 2.41 | 0.01 | 83 | 1015.6 |
| 20260905132341 | 89 | 158 | 0.0 | 3.0 | 0.00 | 2.41 | 0.01 | 84 | 1015.7 |
| 20260905131837 | 90 | 137 | 0.0 | 1.0 | 0.00 | 2.41 | 0.01 | 84 | 1015.6 |
| 20260905131603 | 89 | 133 | 0.0 | 1.0 | 0.00 | 2.41 | 0.01 | 85 | 1015.5 |
| 20260905131353 | 89 | 156 | 0.0 | 1.0 | 0.00 | 2.41 | 0.01 | 86 | 1015.8 |
| 20260905130830 | 88 | 140 | 0.0 | 1.0 | 0.00 | 2.41 | 0.01 | 89 | 1015.8 |
| 20260905130346 | 87 | 140 | 0.0 | 1.0 | 0.00 | 2.41 | 0.01 | 91 | 1015.8 |
| 20260905130057 | 86 | 159 | 0.0 | 1.0 | 0.00 | 2.41 | 0.01 | 92 | 1015.6 |
| 20260905125820 | 87 | 134 | 0.0 | 0.0 | 0.00 | 2.41 | 0.01 | 93 | 1015.8 |
| 20260905125316 | 86 | 134 | 0.0 | 0.0 | 0.00 | 2.41 | 0.01 | 94 | 1015.9 |
| 20260905124831 | 85 | 134 | 0.0 | 0.0 | 0.00 | 2.41 | 0.01 | 95 | 1015.9 |
| 20260905124536 | 83 | 134 | 0.0 | 0.0 | 0.00 | 2.41 | 0.01 | 94 | 1015.8 |
| 20260905124329 | 84 | 134 | 0.0 | 0.0 | 0.00 | 2.41 | 0.01 | 95 | 1015.9 |
| 20260905123844 | 83 | 134 | 0.0 | 0.0 | 0.00 | 2.41 | 0.01 | 95 | 1015.9 |
| 20260905123336 | 83 | 134 | 0.0 | 0.0 | 0.00 | 2.41 | 0.01 | 95 | 1015.9 |
| 20260905123032 | 82 | 134 | 0.0 | 0.0 | 0.00 | 2.41 | 0.01 | 95 | 1015.9 |
| 20260905122832 | 82 | 134 | 0.0 | 0.0 | 0.00 | 2.41 | 0.01 | 95 | 1016.0 |
| 20260905122329 | 82 | 134 | 0.0 | 0.0 | 0.00 | 2.41 | 0.01 | 95 | 1015.9 |
| 20260905121826 | 82 | 133 | 0.0 | 0.0 | 0.00 | 2.41 | 0.01 | 95 | 1015.9 |
| 20260905121525 | 81 | 134 | 0.0 | 0.0 | 0.00 | 2.41 | 0.01 | 95 | 1015.7 |
| 20260905121322 | 81 | 134 | 0.0 | 1.0 | 0.00 | 2.41 | 0.01 | 95 | 1015.8 |
| 20260905120838 | 80 | 134 | 0.0 | 1.0 | 0.00 | 2.41 | 0.01 | 95 | 1015.7 |
| 20260905120353 | 80 | 134 | 0.0 | 0.0 | 0.00 | 2.41 | 0.01 | 95 | 1015.8 |
| 20260905120048 | 79 | 134 | 0.0 | 0.0 | 0.00 | 2.41 | 0.01 | 95 | 1015.6 |
| 20260905115830 | 80 | 134 | 0.0 | 0.0 | 0.00 | 2.41 | 0.01 | 95 | 1015.7 |
| 20260905115325 | 79 | 134 | 0.0 | 0.0 | 0.00 | 2.41 | 0.01 | 95 | 1015.6 |
| 20260905114823 | 80 | 134 | 0.0 | 0.0 | 0.00 | 2.41 | 0.01 | 95 | 1015.5 |
| 20260905114535 | 79 | 133 | 0.0 | 0.0 | 0.00 | 2.41 | 0.01 | 95 | 1015.4 |
| 20260905114320 | 79 | 134 | 0.0 | 0.0 | 0.00 | 2.41 | 0.01 | 95 | 1015.5 |
| 20260905113817 | 79 | 134 | 0.0 | 0.0 | 0.00 | 2.41 | 0.01 | 95 | 1015.4 |
| 20260905113315 | 79 | 134 | 0.0 | 0.0 | 0.00 | 2.41 | 0.01 | 95 | 1015.3 |
| 20260905113019 | 79 | 134 | 0.0 | 0.0 | 0.00 | 2.41 | 0.01 | 95 | 1015.1 |
| 20260905112832 | 79 | 134 | 0.0 | 0.0 | 0.00 | 2.41 | 0.01 | 95 | 1015.3 |
| 20260905112329 | 79 | 134 | 0.0 | 0.0 | 0.00 | 2.41 | 0.01 | 95 | 1015.2 |
| 20260905111846 | 79 | 134 | 0.0 | 0.0 | 0.00 | 2.41 | 0.01 | 95 | 1015.0 |
| 20260905111544 | 78 | 134 | 0.0 | 0.0 | 0.00 | 2.41 | 0.01 | 95 | 1015.0 |
| 20260905111320 | 79 | 134 | 0.0 | 0.0 | 0.00 | 2.41 | 0.01 | 95 | 1015.1 |
| 20260905110818 | 79 | 134 | 0.0 | 0.0 | 0.00 | 2.41 | 0.01 | 95 | 1015.1 |
| 20260905110317 | 79 | 134 | 0.0 | 0.0 | 0.00 | 2.41 | 0.01 | 95 | 1015.1 |
| 20260905110026 | 78 | 134 | 0.0 | 0.0 | 0.00 | 2.41 | 0.01 | 95 | 1015.0 |
| 20260905105833 | 79 | 134 | 0.0 | 0.0 | 0.00 | 2.41 | 0.01 | 95 | 1015.0 |
| 20260905105351 | 79 | 134 | 0.0 | 0.0 | 0.00 | 2.41 | 0.01 | 95 | 1015.1 |
| 20260905104827 | 79 | 134 | 0.0 | 0.0 | 0.00 | 2.41 | 0.01 | 95 | 1015.1 |
| 20260905104601 | 79 | 134 | 0.0 | 0.0 | 0.00 | 2.41 | 0.01 | 95 | 1014.9 |
| 20260905104324 | 79 | 134 | 0.0 | 0.0 | 0.00 | 2.41 | 0.01 | 95 | 1015.0 |
| 20260905103821 | 79 | 134 | 0.0 | 0.0 | 0.00 | 2.41 | 0.01 | 95 | 1015.1 |
| 20260905103317 | 79 | 134 | 0.0 | 0.0 | 0.00 | 2.41 | 0.01 | 95 | 1015.1 |
| 20260905103037 | 79 | 134 | 0.0 | 0.0 | 0.00 | 2.41 | 0.01 | 95 | 1015.0 |
| 20260905102815 | 79 | 134 | 0.0 | 0.0 | 0.00 | 2.41 | 0.01 | 95 | 1015.0 |
| 20260905102333 | 79 | 134 | 0.0 | 0.0 | 0.00 | 2.41 | 0.01 | 95 | 1015.0 |
| 20260905101829 | 79 | 134 | 0.0 | 0.0 | 0.00 | 2.41 | 0.01 | 95 | 1015.1 |
| 20260905101551 | 79 | 134 | 0.0 | 0.0 | 0.00 | 2.41 | 0.01 | 95 | 1015.0 |
| 20260905101325 | 79 | 134 | 0.0 | 0.0 | 0.00 | 2.41 | 0.01 | 95 | 1015.0 |
| 20260905100822 | 79 | 134 | 0.0 | 0.0 | 0.00 | 2.41 | 0.01 | 95 | 1015.0 |
| 20260905100318 | 79 | 134 | 0.0 | 0.0 | 0.00 | 2.41 | 0.01 | 95 | 1014.9 |
| 20260905100037 | 79 | 134 | 0.0 | 0.0 | 0.00 | 2.41 | 0.01 | 95 | 1014.9 |
| 20260905095817 | 79 | 134 | 0.0 | 0.0 | 0.00 | 2.41 | 0.01 | 95 | 1014.8 |
| 20260905095314 | 79 | 134 | 0.0 | 0.0 | 0.00 | 2.41 | 0.01 | 95 | 1014.8 |
| 20260905094832 | 80 | 134 | 0.0 | 0.0 | 0.00 | 2.41 | 0.01 | 95 | 1014.7 |
| 20260905094522 | 79 | 134 | 0.0 | 0.0 | 0.00 | 2.41 | 0.01 | 95 | 1014.6 |
| 20260905094329 | 79 | 134 | 0.0 | 0.0 | 0.00 | 2.41 | 0.01 | 95 | 1014.8 |
| 20260905093824 | 79 | 134 | 0.0 | 0.0 | 0.00 | 2.41 | 0.01 | 95 | 1014.7 |
| 20260905093322 | 80 | 134 | 0.0 | 0.0 | 0.00 | 2.41 | 0.01 | 95 | 1014.6 |
| 20260905093011 | 79 | 134 | 0.0 | 0.0 | 0.00 | 2.41 | 0.01 | 95 | 1014.6 |
| 20260905092819 | 80 | 134 | 0.0 | 0.0 | 0.00 | 2.41 | 0.01 | 95 | 1014.7 |
| 20260905092317 | 80 | 134 | 0.0 | 0.0 | 0.00 | 2.41 | 0.01 | 95 | 1014.6 |
| 20260905091832 | 80 | 134 | 0.0 | 1.0 | 0.00 | 2.41 | 0.01 | 95 | 1014.6 |
| 20260905091531 | 79 | 134 | 0.0 | 1.0 | 0.00 | 2.41 | 0.01 | 95 | 1014.5 |
| 20260905091328 | 80 | 134 | 0.0 | 1.0 | 0.00 | 2.41 | 0.01 | 95 | 1014.6 |
| 20260905090826 | 80 | 134 | 0.0 | 0.0 | 0.00 | 2.41 | 0.01 | 95 | 1014.7 |
| 20260905090323 | 80 | 134 | 0.0 | 0.0 | 0.00 | 2.41 | 0.01 | 95 | 1014.6 |
| 20260905090020 | 79 | 134 | 0.0 | 0.0 | 0.00 | 2.41 | 0.01 | 95 | 1014.5 |
| 20260905085822 | 80 | 134 | 0.0 | 0.0 | 0.00 | 2.41 | 0.01 | 95 | 1014.6 |
| 20260905085321 | 80 | 134 | 0.0 | 0.0 | 0.00 | 2.41 | 0.01 | 95 | 1014.6 |
| 20260905084817 | 80 | 134 | 0.0 | 0.0 | 0.00 | 2.41 | 0.01 | 95 | 1014.6 |
| 20260905084515 | 79 | 134 | 0.0 | 0.0 | 0.00 | 2.41 | 0.01 | 95 | 1014.6 |
| 20260905084358 | 80 | 134 | 0.0 | 0.0 | 0.00 | 2.41 | 0.01 | 95 | 1014.7 |
| 20260905083834 | 80 | 134 | 0.0 | 0.0 | 0.00 | 2.41 | 0.01 | 95 | 1014.7 |
| 20260905083329 | 80 | 134 | 0.0 | 0.0 | 0.00 | 2.41 | 0.01 | 95 | 1014.7 |
| 20260905083008 | 79 | 134 | 0.0 | 0.0 | 0.00 | 2.41 | 0.01 | 95 | 1014.7 |
| 20260905082827 | 80 | 134 | 0.0 | 0.0 | 0.00 | 2.41 | 0.01 | 95 | 1014.8 |
| 20260905082324 | 80 | 134 | 0.0 | 0.0 | 0.00 | 2.41 | 0.01 | 95 | 1014.8 |
| 20260905081823 | 80 | 134 | 0.0 | 0.0 | 0.00 | 2.41 | 0.01 | 95 | 1014.8 |
| 20260905081537 | 79 | 134 | 0.0 | 0.0 | 0.00 | 2.41 | 0.01 | 95 | 1014.6 |
| 20260905081320 | 80 | 134 | 0.0 | 0.0 | 0.00 | 2.41 | 0.01 | 95 | 1014.7 |
| 20260905080817 | 80 | 134 | 0.0 | 0.0 | 0.00 | 2.41 | 0.01 | 95 | 1014.8 |
| 20260905080315 | 80 | 134 | 0.0 | 0.0 | 0.00 | 2.41 | 0.01 | 95 | 1014.7 |
| 20260905080031 | 79 | 133 | 0.0 | 0.0 | 0.00 | 2.41 | 0.01 | 95 | 1014.6 |
| 20260905075833 | 80 | 133 | 0.0 | 0.0 | 0.00 | 2.41 | 0.01 | 95 | 1014.7 |
| 20260905075351 | 80 | 134 | 0.0 | 0.0 | 0.00 | 2.41 | 0.01 | 95 | 1014.7 |
| 20260905074826 | 80 | 133 | 0.0 | 0.0 | 0.00 | 2.41 | 0.01 | 95 | 1014.7 |
| 20260905074540 | 79 | 134 | 0.0 | 0.0 | 0.00 | 2.41 | 0.01 | 95 | 1014.7 |
| 20260905074323 | 80 | 134 | 0.0 | 0.0 | 0.00 | 2.41 | 0.01 | 95 | 1014.8 |
| 20260905073821 | 80 | 133 | 0.0 | 0.0 | 0.00 | 2.41 | 0.01 | 95 | 1014.8 |
| 20260905073318 | 80 | 134 | 0.0 | 0.0 | 0.00 | 2.41 | 0.01 | 95 | 1014.7 |
| 20260905073006 | 79 | 134 | 0.0 | 0.0 | 0.00 | 2.41 | 0.01 | 95 | 1014.6 |
| 20260905072817 | 80 | 134 | 0.0 | 0.0 | 0.01 | 2.41 | 0.01 | 95 | 1014.7 |
| 20260905072314 | 80 | 134 | 0.0 | 0.0 | 0.01 | 2.41 | 0.01 | 95 | 1014.7 |
| 20260905071832 | 80 | 134 | 0.0 | 0.0 | 0.01 | 2.41 | 0.01 | 95 | 1014.7 |
| 20260905071552 | 79 | 134 | 0.0 | 0.0 | 0.01 | 2.41 | 0.01 | 94 | 1014.6 |
| 20260905071330 | 80 | 134 | 0.0 | 0.0 | 0.01 | 2.41 | 0.01 | 95 | 1014.8 |
| 20260905070848 | 80 | 134 | 0.0 | 0.0 | 0.01 | 2.41 | 0.01 | 95 | 1014.8 |
| 20260905070324 | 80 | 134 | 0.0 | 0.0 | 0.01 | 2.41 | 0.01 | 95 | 1014.8 |
| 20260905070028 | 80 | 134 | 0.0 | 0.0 | 0.01 | 2.41 | 0.01 | 95 | 1014.8 |
| 20260905065821 | 80 | 134 | 0.0 | 0.0 | 0.01 | 2.41 | 0.01 | 95 | 1014.9 |
| 20260905065318 | 80 | 134 | 0.0 | 0.0 | 0.01 | 2.41 | 0.01 | 95 | 1015.0 |
| 20260905064814 | 80 | 134 | 0.0 | 0.0 | 0.01 | 2.41 | 0.01 | 95 | 1015.1 |
| 20260905064558 | 80 | 134 | 0.0 | 0.0 | 0.01 | 2.41 | 0.01 | 95 | 1015.0 |
| 20260905064334 | 80 | 133 | 0.0 | 0.0 | 0.01 | 2.41 | 0.01 | 95 | 1015.1 |
| 20260905063851 | 80 | 134 | 0.0 | 0.0 | 0.01 | 2.41 | 0.01 | 95 | 1015.2 |
| 20260905063328 | 80 | 134 | 0.0 | 0.0 | 0.01 | 2.41 | 0.01 | 95 | 1015.2 |
| 20260905063018 | 80 | 134 | 0.0 | 0.0 | 0.00 | 2.40 | 0.01 | 95 | 1015.2 |
| 20260905062826 | 80 | 134 | 0.0 | 0.0 | 0.00 | 2.40 | 0.00 | 95 | 1015.4 |
| 20260905062322 | 80 | 134 | 0.0 | 0.0 | 0.00 | 2.40 | 0.00 | 94 | 1015.4 |
| 20260905061821 | 80 | 134 | 0.0 | 0.0 | 0.00 | 2.40 | 0.00 | 94 | 1015.5 |
| 20260905061504 | 79 | 134 | 0.0 | 0.0 | 0.00 | 2.40 | 0.00 | 94 | 1015.4 |
| 20260905061339 | 80 | 134 | 0.0 | 0.0 | 0.00 | 2.40 | 0.00 | 94 | 1015.5 |
| 20260905060834 | 80 | 134 | 0.0 | 0.0 | 0.00 | 2.40 | 0.00 | 94 | 1015.6 |
| 20260905060347 | 80 | 134 | 0.0 | 0.0 | 0.00 | 2.40 | 0.00 | 94 | 1015.6 |
| 20260905060100 | 79 | 134 | 0.0 | 0.0 | 0.00 | 2.40 | 0.00 | 94 | 1015.6 |
| 20260905060002 | 79 | 134 | 0.0 | 0.0 | 0.00 | 2.40 | 0.00 | 94 | 1015.6 |
| 20260905055824 | 80 | 134 | 0.0 | 0.0 | 0.00 | 2.40 | 0.00 | 94 | 1015.7 |
| 20260905055320 | 80 | 134 | 0.0 | 0.0 | 0.00 | 2.40 | 0.00 | 94 | 1015.8 |
| 20260905054818 | 80 | 134 | 0.0 | 0.0 | 0.00 | 2.40 | 0.00 | 94 | 1015.9 |
| 20260905054549 | 80 | 134 | 0.0 | 0.0 | 0.00 | 2.40 | 0.00 | 94 | 1015.7 |
| 20260905054337 | 80 | 134 | 0.0 | 0.0 | 0.00 | 2.40 | 0.00 | 94 | 1015.9 |
| 20260905053855 | 81 | 134 | 0.0 | 0.0 | 0.00 | 2.40 | 0.00 | 94 | 1015.9 |
| 20260905053329 | 81 | 134 | 0.0 | 0.0 | 0.00 | 2.40 | 0.00 | 94 | 1016.0 |
| 20260905053046 | 80 | 133 | 0.0 | 0.0 | 0.00 | 2.40 | 0.00 | 94 | 1015.9 |
| 20260905052825 | 81 | 134 | 0.0 | 0.0 | 0.00 | 2.40 | 0.00 | 94 | 1016.1 |
| 20260905052322 | 81 | 134 | 0.0 | 0.0 | 0.00 | 2.40 | 0.00 | 94 | 1016.0 |
| 20260905051820 | 81 | 134 | 0.0 | 0.0 | 0.00 | 2.40 | 0.00 | 94 | 1016.1 |
| 20260905051542 | 80 | 134 | 0.0 | 0.0 | 0.00 | 2.40 | 0.00 | 94 | 1016.0 |
| 20260905051318 | 81 | 134 | 0.0 | 0.0 | 0.00 | 2.40 | 0.00 | 94 | 1016.1 |
| 20260905050815 | 81 | 134 | 0.0 | 0.0 | 0.00 | 2.40 | 0.00 | 94 | 1016.1 |
| 20260905050331 | 81 | 134 | 0.0 | 0.0 | 0.00 | 2.40 | 0.00 | 94 | 1016.2 |
| 20260905050020 | 80 | 134 | 0.0 | 0.0 | 0.00 | 2.40 | 0.00 | 94 | 1016.0 |
| 20260905045827 | 80 | 134 | 0.0 | 0.0 | 0.00 | 2.40 | 0.00 | 94 | 1016.1 |
| 20260905045326 | 80 | 134 | 0.0 | 0.0 | 0.00 | 2.40 | 0.00 | 94 | 1016.2 |
| 20260905044823 | 80 | 134 | 0.0 | 0.0 | 0.00 | 2.40 | 0.00 | 94 | 1016.2 |
| 20260905044517 | 80 | 134 | 0.0 | 0.0 | 0.00 | 2.40 | 0.00 | 94 | 1016.1 |
| 20260905044320 | 81 | 134 | 0.0 | 0.0 | 0.00 | 2.40 | 0.00 | 94 | 1016.3 |
| 20260905043818 | 80 | 134 | 0.0 | 0.0 | 0.00 | 2.40 | 0.00 | 94 | 1016.2 |
| 20260905043315 | 81 | 134 | 0.0 | 0.0 | 0.00 | 2.40 | 0.00 | 94 | 1016.2 |
| 20260905043054 | 80 | 134 | 0.0 | 0.0 | 0.00 | 2.40 | 0.00 | 94 | 1016.1 |
| 20260905042859 | 81 | 134 | 0.0 | 0.0 | 0.00 | 2.40 | 0.00 | 94 | 1016.3 |
| 20260905042353 | 81 | 134 | 0.0 | 0.0 | 0.00 | 2.40 | 0.00 | 94 | 1016.3 |
| 20260905041830 | 81 | 134 | 0.0 | 0.0 | 0.00 | 2.40 | 0.00 | 94 | 1016.3 |
| 20260905041557 | 80 | 134 | 0.0 | 0.0 | 0.00 | 2.40 | 0.00 | 94 | 1016.3 |
| 20260905041503 | 80 | 134 | 0.0 | 0.0 | 0.00 | 2.40 | 0.00 | 94 | 1016.2 |
| 20260905041348 | 81 | 134 | 0.0 | 0.0 | 0.00 | 2.40 | 0.00 | 94 | 1016.4 |
| 20260905040845 | 80 | 134 | 0.0 | 0.0 | 0.00 | 2.40 | 0.00 | 94 | 1016.3 |
| 20260905040321 | 80 | 134 | 0.0 | 0.0 | 0.00 | 2.40 | 0.00 | 94 | 1016.3 |
| 20260905040057 | 80 | 134 | 0.0 | 0.0 | 0.00 | 2.40 | 0.00 | 94 | 1016.2 |
| 20260905035818 | 80 | 134 | 0.0 | 0.0 | 0.00 | 2.40 | 2.40 | 94 | 1016.3 |
| 20260905035315 | 80 | 134 | 0.0 | 0.0 | 0.00 | 2.40 | 2.40 | 94 | 1016.3 |
| 20260905034832 | 80 | 134 | 0.0 | 0.0 | 0.00 | 2.40 | 2.40 | 94 | 1016.4 |
| 20260905034541 | 80 | 134 | 0.0 | 0.0 | 0.00 | 2.40 | 2.40 | 94 | 1016.3 |
| 20260905034329 | 80 | 134 | 0.0 | 0.0 | 0.00 | 2.40 | 2.40 | 94 | 1016.5 |
| 20260905033825 | 81 | 134 | 0.0 | 0.0 | 0.00 | 2.40 | 2.40 | 94 | 1016.4 |
| 20260905033324 | 81 | 134 | 0.0 | 0.0 | 0.00 | 2.40 | 2.40 | 94 | 1016.4 |
| 20260905033100 | 80 | 134 | 0.0 | 0.0 | 0.00 | 2.40 | 2.40 | 94 | 1016.4 |
| 20260905033002 | 80 | 134 | 0.0 | 0.0 | 0.00 | 2.40 | 2.40 | 94 | 1016.4 |
| 20260905032819 | 81 | 134 | 0.0 | 0.0 | 0.00 | 2.40 | 2.40 | 94 | 1016.6 |
| 20260905032316 | 80 | 134 | 0.0 | 0.0 | 0.00 | 2.40 | 2.40 | 94 | 1016.5 |
| 20260905031835 | 81 | 134 | 0.0 | 0.0 | 0.00 | 2.40 | 2.40 | 94 | 1016.5 |
| 20260905031548 | 80 | 134 | 0.0 | 0.0 | 0.00 | 2.40 | 2.40 | 94 | 1016.4 |
| 20260905031328 | 81 | 134 | 0.0 | 0.0 | 0.00 | 2.40 | 2.40 | 94 | 1016.5 |
| 20260905030824 | 81 | 134 | 0.0 | 0.0 | 0.00 | 2.40 | 2.40 | 94 | 1016.6 |
| 20260905030319 | 81 | 134 | 0.0 | 0.0 | 0.00 | 2.40 | 2.40 | 94 | 1016.6 |
| 20260905030016 | 80 | 134 | 0.0 | 0.0 | 0.00 | 2.40 | 2.40 | 94 | 1016.5 |
| 20260905025819 | 81 | 134 | 0.0 | 0.0 | 0.00 | 2.40 | 2.40 | 94 | 1016.6 |
| 20260905025316 | 81 | 134 | 0.0 | 0.0 | 0.00 | 2.40 | 2.40 | 94 | 1016.6 |
| 20260905024833 | 81 | 134 | 0.0 | 0.0 | 0.00 | 2.40 | 2.40 | 94 | 1016.5 |
| 20260905024539 | 80 | 134 | 0.0 | 0.0 | 0.00 | 2.40 | 2.40 | 94 | 1016.5 |
| 20260905024348 | 81 | 134 | 0.0 | 0.0 | 0.00 | 2.40 | 2.40 | 94 | 1016.6 |
| 20260905023825 | 81 | 134 | 0.0 | 0.0 | 0.00 | 2.40 | 2.40 | 94 | 1016.6 |
| 20260905023324 | 80 | 133 | 0.0 | 0.0 | 0.00 | 2.40 | 2.40 | 94 | 1016.6 |
| 20260905023006 | 80 | 134 | 0.0 | 0.0 | 0.00 | 2.40 | 2.40 | 94 | 1016.5 |
| 20260905022841 | 81 | 134 | 0.0 | 0.0 | 0.00 | 2.40 | 2.40 | 94 | 1016.7 |
| 20260905022317 | 81 | 134 | 0.0 | 0.0 | 0.00 | 2.40 | 2.40 | 94 | 1016.8 |
| 20260905021814 | 80 | 134 | 0.0 | 0.0 | 0.00 | 2.40 | 2.40 | 94 | 1016.7 |
| 20260905021526 | 80 | 134 | 0.0 | 0.0 | 0.00 | 2.40 | 2.40 | 94 | 1016.6 |
| 20260905021332 | 80 | 134 | 0.0 | 0.0 | 0.00 | 2.40 | 2.40 | 94 | 1016.6 |
| 20260905020830 | 80 | 134 | 0.0 | 0.0 | 0.00 | 2.40 | 2.40 | 93 | 1016.7 |
| 20260905020328 | 81 | 134 | 0.0 | 0.0 | 0.00 | 2.40 | 2.40 | 93 | 1016.7 |
| 20260905020021 | 80 | 134 | 0.0 | 0.0 | 0.00 | 2.40 | 2.40 | 94 | 1016.6 |
| 20260905015826 | 81 | 134 | 0.0 | 0.0 | 0.00 | 2.40 | 2.40 | 93 | 1016.6 |
| 20260905015324 | 81 | 134 | 0.0 | 0.0 | 0.00 | 2.40 | 2.40 | 93 | 1016.5 |
| 20260905014821 | 81 | 134 | 0.0 | 0.0 | 0.00 | 2.40 | 2.40 | 93 | 1016.6 |
| 20260905014558 | 80 | 134 | 0.0 | 0.0 | 0.00 | 2.40 | 2.40 | 93 | 1016.5 |
| 20260905014317 | 81 | 134 | 0.0 | 0.0 | 0.00 | 2.40 | 2.40 | 93 | 1016.5 |
| 20260905013814 | 81 | 134 | 0.0 | 0.0 | 0.00 | 2.40 | 2.40 | 93 | 1016.5 |
| 20260905013332 | 81 | 134 | 0.0 | 0.0 | 0.00 | 2.40 | 2.40 | 93 | 1016.5 |
| 20260905013040 | 80 | 134 | 0.0 | 0.0 | 0.00 | 2.40 | 2.40 | 93 | 1016.4 |
| 20260905012849 | 81 | 133 | 0.0 | 0.0 | 0.00 | 2.40 | 2.40 | 93 | 1016.4 |
| 20260905012325 | 81 | 134 | 0.0 | 0.0 | 0.00 | 2.40 | 2.40 | 93 | 1016.3 |
| 20260905011841 | 81 | 134 | 0.0 | 0.0 | 0.00 | 2.40 | 2.40 | 93 | 1016.3 |
| 20260905011539 | 81 | 134 | 0.0 | 0.0 | 0.00 | 2.40 | 2.40 | 93 | 1016.2 |
| 20260905011317 | 81 | 134 | 0.0 | 0.0 | 0.00 | 2.40 | 2.40 | 93 | 1016.3 |
| 20260905010815 | 81 | 134 | 0.0 | 0.0 | 0.00 | 2.40 | 2.40 | 93 | 1016.3 |
| 20260905010334 | 81 | 134 | 0.0 | 0.0 | 0.00 | 2.40 | 2.40 | 93 | 1016.3 |
| 20260905010027 | 81 | 134 | 0.0 | 0.0 | 0.00 | 2.40 | 2.40 | 93 | 1016.1 |
| 20260905005831 | 81 | 134 | 0.0 | 0.0 | 0.00 | 2.40 | 2.40 | 93 | 1016.2 |
| 20260905005327 | 81 | 134 | 0.0 | 0.0 | 0.00 | 2.40 | 2.40 | 93 | 1016.1 |
| 20260905004825 | 81 | 134 | 0.0 | 0.0 | 0.00 | 2.40 | 2.40 | 93 | 1015.9 |
| 20260905004517 | 81 | 134 | 0.0 | 0.0 | 0.00 | 2.40 | 2.40 | 93 | 1015.7 |
| 20260905004320 | 82 | 134 | 0.0 | 0.0 | 0.00 | 2.40 | 2.40 | 93 | 1015.9 |
| 20260905003819 | 82 | 134 | 0.0 | 0.0 | 0.00 | 2.40 | 2.40 | 93 | 1015.8 |
| 20260905003317 | 81 | 134 | 0.0 | 0.0 | 0.00 | 2.40 | 2.40 | 93 | 1015.9 |
| 20260905003040 | 81 | 134 | 0.0 | 0.0 | 0.00 | 2.40 | 2.40 | 93 | 1015.8 |
| 20260905002834 | 81 | 134 | 0.0 | 0.0 | 0.00 | 2.40 | 2.40 | 92 | 1015.9 |
| 20260905002330 | 81 | 134 | 0.0 | 0.0 | 0.00 | 2.40 | 2.40 | 92 | 1015.9 |
| 20260905001827 | 81 | 133 | 0.0 | 0.0 | 0.00 | 2.40 | 2.40 | 92 | 1015.9 |
| 20260905001532 | 81 | 134 | 0.0 | 0.0 | 0.00 | 2.40 | 2.40 | 92 | 1015.6 |
| 20260905001325 | 81 | 134 | 0.0 | 0.0 | 0.00 | 2.40 | 2.40 | 92 | 1015.7 |
| 20260905000821 | 81 | 134 | 0.0 | 0.0 | 0.00 | 2.40 | 2.40 | 92 | 1015.6 |
| 20260905000319 | 82 | 134 | 0.0 | 0.0 | 0.00 | 2.40 | 2.40 | 92 | 1015.7 |
| 20260905000020 | 81 | 134 | 0.0 | 0.0 | 0.00 | 2.40 | 2.40 | 92 | 1015.6 |
| 20260904235836 | 82 | 134 | 0.0 | 0.0 | 0.00 | 2.40 | 2.40 | 92 | 1015.7 |
| 20260904235329 | 82 | 134 | 0.0 | 0.0 | 0.00 | 2.40 | 2.40 | 92 | 1015.6 |
| 20260904234827 | 82 | 134 | 0.0 | 0.0 | 0.00 | 2.40 | 2.40 | 92 | 1015.6 |
| 20260904234547 | 81 | 134 | 0.0 | 0.0 | 0.00 | 2.40 | 2.40 | 92 | 1015.5 |
| 20260904234323 | 82 | 134 | 0.0 | 0.0 | 0.00 | 2.40 | 2.40 | 92 | 1015.4 |
| 20260904233841 | 82 | 133 | 0.0 | 0.0 | 0.00 | 2.40 | 2.40 | 92 | 1015.4 |
| 20260904233317 | 82 | 134 | 0.0 | 0.0 | 0.00 | 2.40 | 2.40 | 92 | 1015.3 |
| 20260904233038 | 82 | 133 | 0.0 | 0.0 | 0.02 | 2.40 | 2.40 | 91 | 1015.1 |
| 20260904232835 | 82 | 134 | 0.0 | 0.0 | 0.02 | 2.40 | 2.40 | 91 | 1015.3 |
| 20260904232330 | 82 | 134 | 0.0 | 0.0 | 0.02 | 2.40 | 2.40 | 91 | 1015.2 |
| 20260904231848 | 82 | 134 | 0.0 | 0.0 | 0.02 | 2.40 | 2.40 | 91 | 1015.1 |
| 20260904231541 | 82 | 134 | 0.0 | 0.0 | 0.02 | 2.40 | 2.40 | 91 | 1015.0 |
| 20260904231323 | 82 | 134 | 0.0 | 1.0 | 0.02 | 2.40 | 2.40 | 91 | 1015.1 |
| 20260904230822 | 82 | 133 | 0.0 | 1.0 | 0.02 | 2.40 | 2.40 | 92 | 1015.0 |
| 20260904230322 | 82 | 132 | 0.0 | 1.0 | 0.02 | 2.40 | 2.40 | 92 | 1014.9 |
| 20260904230008 | 81 | 122 | 0.0 | 0.0 | 0.02 | 2.40 | 2.40 | 92 | 1014.8 |
| 20260904225819 | 82 | 122 | 0.0 | 0.0 | 0.02 | 2.40 | 2.40 | 92 | 1014.9 |
| 20260904225318 | 82 | 116 | 0.0 | 0.0 | 0.02 | 2.40 | 2.40 | 92 | 1014.9 |
| 20260904224817 | 82 | 116 | 0.0 | 0.0 | 0.02 | 2.40 | 2.40 | 92 | 1014.9 |
| 20260904224609 | 81 | 116 | 0.0 | 1.0 | 0.02 | 2.40 | 2.40 | 92 | 1014.8 |
| 20260904224316 | 81 | 116 | 0.0 | 1.0 | 0.02 | 2.40 | 2.40 | 92 | 1014.9 |
| 20260904223816 | 81 | 116 | 0.0 | 2.0 | 0.02 | 2.40 | 2.40 | 92 | 1015.0 |
| 20260904223315 | 80 | 117 | 1.0 | 2.0 | 0.02 | 2.40 | 2.40 | 92 | 1015.1 |
| 20260904223040 | 80 | 131 | 0.0 | 2.0 | 0.00 | 2.38 | 2.39 | 92 | 1015.1 |
| 20260904222833 | 80 | 97 | 0.0 | 0.0 | 0.01 | 2.38 | 2.38 | 92 | 1015.2 |
| 20260904222331 | 80 | 97 | 0.0 | 0.0 | 0.03 | 2.38 | 2.38 | 92 | 1015.2 |
| 20260904221831 | 80 | 97 | 0.0 | 0.0 | 0.10 | 2.38 | 2.38 | 92 | 1015.4 |
| 20260904221533 | 79 | 97 | 0.0 | 0.0 | 0.14 | 2.38 | 2.38 | 92 | 1015.3 |
| 20260904221330 | 80 | 97 | 0.0 | 0.0 | 0.17 | 2.38 | 2.38 | 92 | 1015.4 |
| 20260904220829 | 80 | 97 | 0.0 | 0.0 | 0.25 | 2.38 | 2.38 | 92 | 1015.3 |
| 20260904220326 | 80 | 97 | 0.0 | 0.0 | 0.36 | 2.38 | 2.38 | 92 | 1015.3 |
| 20260904220055 | 80 | 97 | 0.0 | 0.0 | 0.46 | 2.38 | 2.38 | 92 | 1015.3 |
| 20260904215823 | 80 | 97 | 0.0 | 0.0 | 0.53 | 2.38 | 2.38 | 92 | 1015.4 |
| 20260904215322 | 80 | 97 | 0.0 | 0.0 | 0.60 | 2.38 | 2.38 | 92 | 1015.2 |
| 20260904214840 | 80 | 97 | 0.0 | 2.0 | 0.81 | 2.38 | 2.38 | 92 | 1015.2 |
| 20260904214513 | 80 | 97 | 0.0 | 2.0 | 1.07 | 2.38 | 2.38 | 92 | 1015.2 |
| 20260904214318 | 80 | 97 | 0.0 | 2.0 | 1.20 | 2.38 | 2.38 | 92 | 1015.2 |
| 20260904213815 | 80 | 158 | 0.0 | 0.0 | 1.39 | 2.38 | 2.38 | 91 | 1015.3 |
| 20260904213334 | 80 | 158 | 0.0 | 0.0 | 1.42 | 2.38 | 2.38 | 91 | 1015.3 |
| 20260904213004 | 79 | 158 | 0.0 | 0.0 | 1.42 | 2.38 | 2.38 | 90 | 1015.2 |
| 20260904212831 | 79 | 158 | 0.0 | 0.0 | 1.41 | 2.37 | 2.37 | 90 | 1015.2 |
| 20260904212329 | 79 | 148 | 0.0 | 0.0 | 1.39 | 2.35 | 2.35 | 88 | 1015.3 |
| 20260904211827 | 78 | 148 | 0.0 | 4.0 | 1.32 | 2.28 | 2.28 | 87 | 1015.5 |
| 20260904211557 | 78 | 148 | 0.0 | 4.0 | 1.28 | 2.24 | 2.24 | 87 | 1015.5 |
| 20260904211325 | 78 | 148 | 0.0 | 4.0 | 1.25 | 2.21 | 2.21 | 87 | 1015.7 |
| 20260904210823 | 78 | 134 | 0.0 | 9.0 | 1.15 | 2.11 | 2.11 | 86 | 1015.9 |
| 20260904210321 | 78 | 152 | 3.0 | 10.0 | 1.04 | 2.00 | 2.00 | 85 | 1016.0 |
| 20260904210041 | 78 | 278 | 3.0 | 10.0 | 0.95 | 1.91 | 1.91 | 85 | 1015.7 |
| 20260904205819 | 79 | 184 | 4.0 | 11.0 | 0.88 | 1.84 | 1.84 | 86 | 1015.9 |
| 20260904205317 | 81 | 103 | 4.0 | 11.0 | 0.82 | 1.78 | 1.78 | 88 | 1016.0 |
| 20260904204833 | 81 | 142 | 6.0 | 16.0 | 0.61 | 1.57 | 1.57 | 87 | 1016.2 |
| 20260904204523 | 81 | 126 | 8.0 | 16.0 | 0.28 | 1.25 | 1.31 | 86 | 1016.1 |
| 20260904204330 | 82 | 129 | 12.0 | 16.0 | 0.20 | 1.16 | 1.18 | 87 | 1016.1 |
| 20260904203827 | 83 | 42 | 3.0 | 6.0 | 0.04 | 0.99 | 0.99 | 87 | 1015.7 |
| 20260904203347 | 83 | 28 | 3.0 | 5.0 | 0.06 | 0.96 | 0.96 | 85 | 1015.6 |
| 20260904203050 | 83 | 1 | 2.0 | 5.0 | 0.13 | 0.96 | 0.96 | 85 | 1015.5 |
| 20260904202822 | 83 | 333 | 2.0 | 5.0 | 0.28 | 0.96 | 0.96 | 85 | 1015.8 |
| 20260904202321 | 84 | 50 | 2.0 | 7.0 | 0.64 | 0.96 | 0.96 | 84 | 1015.9 |
| 20260904201818 | 85 | 27 | 2.0 | 7.0 | 0.91 | 0.96 | 0.96 | 84 | 1015.9 |
| 20260904201537 | 84 | 342 | 4.0 | 7.0 | 0.96 | 0.96 | 0.96 | 84 | 1015.8 |
| 20260904201359 | 85 | 352 | 3.0 | 7.0 | 0.96 | 0.96 | 0.96 | 84 | 1016.1 |
| 20260904200855 | 84 | 358 | 2.0 | 5.0 | 0.96 | 0.96 | 0.96 | 85 | 1016.2 |
| 20260904200332 | 84 | 352 | 3.0 | 8.0 | 0.96 | 0.96 | 0.96 | 85 | 1016.3 |
| 20260904200033 | 83 | 332 | 3.0 | 8.0 | 0.96 | 0.96 | 0.96 | 86 | 1016.1 |
| 20260904195828 | 83 | 349 | 4.0 | 8.0 | 0.96 | 0.96 | 0.96 | 87 | 1016.1 |
| 20260904195327 | 82 | 44 | 0.0 | 1.0 | 0.96 | 0.96 | 0.96 | 88 | 1015.9 |
| 20260904194825 | 82 | 50 | 0.0 | 2.0 | 0.96 | 0.96 | 0.96 | 88 | 1016.1 |
| 20260904194524 | 81 | 133 | 0.0 | 3.0 | 0.96 | 0.96 | 0.96 | 88 | 1016.1 |
| 20260904194324 | 81 | 55 | 0.0 | 7.0 | 0.96 | 0.96 | 0.96 | 87 | 1016.2 |
| 20260904193820 | 81 | 71 | 1.0 | 7.0 | 0.95 | 0.95 | 0.95 | 84 | 1016.2 |
| 20260904193318 | 80 | 215 | 3.0 | 7.0 | 0.90 | 0.90 | 0.90 | 83 | 1016.2 |
| 20260904193011 | 80 | 169 | 2.0 | 19.0 | 0.73 | 0.73 | 0.79 | 82 | 1016.1 |
| 20260904192815 | 81 | 347 | 3.0 | 21.0 | 0.68 | 0.68 | 0.68 | 81 | 1016.3 |
| 20260904192333 | 84 | 155 | 5.0 | 21.0 | 0.32 | 0.32 | 0.32 | 81 | 1016.7 |
| 20260904191829 | 89 | 105 | 6.0 | 12.0 | 0.05 | 0.05 | 0.05 | 82 | 1016.2 |
| 20260904191553 | 90 | 133 | 7.0 | 11.0 | 0.00 | 0.00 | 0.00 | 81 | 1016.0 |
| 20260904191346 | 90 | 117 | 7.0 | 11.0 | 0.00 | 0.00 | 0.00 | 80 | 1015.9 |
| 20260904190822 | 90 | 135 | 4.0 | 7.0 | 0.00 | 0.00 | 0.00 | 80 | 1016.0 |
| 20260904190321 | 90 | 145 | 3.0 | 6.0 | 0.00 | 0.00 | 0.00 | 80 | 1016.1 |
| 20260904190024 | 90 | 112 | 3.0 | 6.0 | 0.00 | 0.00 | 0.00 | 79 | 1016.1 |
| 20260904185818 | 91 | 129 | 3.0 | 6.0 | 0.00 | 0.00 | 0.00 | 79 | 1016.2 |
| 20260904185315 | 91 | 127 | 3.0 | 8.0 | 0.00 | 0.00 | 0.00 | 79 | 1016.1 |
| 20260904184830 | 91 | 164 | 3.0 | 8.0 | 0.00 | 0.00 | 0.00 | 79 | 1016.1 |
| 20260904184505 | 90 | 128 | 2.0 | 7.0 | 0.00 | 0.00 | 0.00 | 78 | 1016.2 |
| 20260904184327 | 91 | 119 | 4.0 | 7.0 | 0.00 | 0.00 | 0.00 | 78 | 1016.4 |
| 20260904183824 | 91 | 127 | 4.0 | 7.0 | 0.00 | 0.00 | 0.00 | 78 | 1016.5 |
| 20260904183343 | 91 | 121 | 4.0 | 7.0 | 0.00 | 0.00 | 0.00 | 79 | 1016.5 |
| 20260904183028 | 90 | 111 | 3.0 | 7.0 | 0.00 | 0.00 | 0.00 | 78 | 1016.3 |
| 20260904182840 | 91 | 153 | 4.0 | 10.0 | 0.00 | 0.00 | 0.00 | 78 | 1016.5 |
| 20260904182357 | 91 | 153 | 3.0 | 10.0 | 0.00 | 0.00 | 0.00 | 79 | 1016.3 |
| 20260904181852 | 91 | 141 | 7.0 | 11.0 | 0.00 | 0.00 | 0.00 | 78 | 1016.2 |
| 20260904181530 | 91 | 150 | 5.0 | 11.0 | 0.00 | 0.00 | 0.00 | 78 | 1016.1 |
| 20260904181329 | 91 | 127 | 6.0 | 11.0 | 0.00 | 0.00 | 0.00 | 78 | 1016.2 |
| 20260904180847 | 91 | 150 | 4.0 | 11.0 | 0.00 | 0.00 | 0.00 | 78 | 1016.2 |
| 20260904180342 | 91 | 148 | 4.0 | 11.0 | 0.00 | 0.00 | 0.00 | 78 | 1016.3 |
| 20260904180041 | 91 | 143 | 6.0 | 11.0 | 0.00 | 0.00 | 0.00 | 77 | 1016.4 |
| 20260904175819 | 92 | 126 | 5.0 | 10.0 | 0.00 | 0.00 | 0.00 | 76 | 1016.5 |
| 20260904175316 | 93 | 174 | 1.0 | 5.0 | 0.00 | 0.00 | 0.00 | 76 | 1016.5 |
| 20260904174832 | 93 | 96 | 0.0 | 4.0 | 0.00 | 0.00 | 0.00 | 76 | 1016.6 |
| 20260904174525 | 92 | 138 | 0.0 | 4.0 | 0.00 | 0.00 | 0.00 | 76 | 1016.5 |
| 20260904174344 | 93 | 129 | 2.0 | 4.0 | 0.00 | 0.00 | 0.00 | 75 | 1016.6 |
| 20260904173820 | 92 | 156 | 1.0 | 6.0 | 0.00 | 0.00 | 0.00 | 75 | 1016.8 |
| 20260904173338 | 92 | 127 | 2.0 | 6.0 | 0.00 | 0.00 | 0.00 | 75 | 1016.8 |
| 20260904173043 | 92 | 134 | 3.0 | 9.0 | 0.00 | 0.00 | 0.00 | 76 | 1016.8 |
| 20260904172855 | 92 | 180 | 4.0 | 9.0 | 0.00 | 0.00 | 0.00 | 77 | 1016.9 |
| 20260904172332 | 92 | 137 | 4.0 | 9.0 | 0.00 | 0.00 | 0.00 | 77 | 1017.0 |
| 20260904171828 | 92 | 113 | 2.0 | 8.0 | 0.00 | 0.00 | 0.00 | 76 | 1017.0 |
| 20260904171507 | 91 | 131 | 0.0 | 7.0 | 0.00 | 0.00 | 0.00 | 78 | 1016.9 |
| 20260904171325 | 91 | 191 | 1.0 | 7.0 | 0.00 | 0.00 | 0.00 | 77 | 1016.9 |
| 20260904170841 | 92 | 114 | 3.0 | 7.0 | 0.00 | 0.00 | 0.00 | 76 | 1017.1 |
| 20260904170337 | 91 | 186 | 1.0 | 5.0 | 0.00 | 0.00 | 0.00 | 80 | 1017.1 |
| 20260904170006 | 90 | 120 | 0.0 | 5.0 | 0.00 | 0.00 | 0.00 | 80 | 1017.1 |
| 20260904165833 | 91 | 161 | 1.0 | 5.0 | 0.00 | 0.00 | 0.00 | 80 | 1017.2 |
| 20260904165330 | 91 | 102 | 0.0 | 6.0 | 0.00 | 0.00 | 0.00 | 80 | 1017.2 |
| 20260904164828 | 91 | 113 | 2.0 | 8.0 | 0.00 | 0.00 | 0.00 | 78 | 1017.3 |
| 20260904164548 | 90 | 109 | 1.0 | 8.0 | 0.00 | 0.00 | 0.00 | 77 | 1017.3 |
| 20260904164326 | 91 | 104 | 1.0 | 8.0 | 0.00 | 0.00 | 0.00 | 77 | 1017.5 |
| 20260904163824 | 91 | 128 | 4.0 | 7.0 | 0.00 | 0.00 | 0.00 | 75 | 1017.5 |
| 20260904163323 | 91 | 148 | 3.0 | 7.0 | 0.00 | 0.00 | 0.00 | 76 | 1017.4 |
| 20260904163029 | 91 | 127 | 3.0 | 7.0 | 0.00 | 0.00 | 0.00 | 76 | 1017.4 |
| 20260904162819 | 91 | 127 | 2.0 | 7.0 | 0.00 | 0.00 | 0.00 | 76 | 1017.4 |
| 20260904162336 | 91 | 86 | 4.0 | 8.0 | 0.00 | 0.00 | 0.00 | 77 | 1017.4 |
| 20260904161834 | 91 | 111 | 3.0 | 8.0 | 0.00 | 0.00 | 0.00 | 76 | 1017.4 |
| 20260904161549 | 91 | 148 | 4.0 | 9.0 | 0.00 | 0.00 | 0.00 | 77 | 1017.4 |
| 20260904161331 | 91 | 145 | 3.0 | 9.0 | 0.00 | 0.00 | 0.00 | 77 | 1017.6 |
| 20260904160848 | 92 | 122 | 4.0 | 9.0 | 0.00 | 0.00 | 0.00 | 77 | 1017.7 |
| 20260904160325 | 92 | 143 | 3.0 | 6.0 | 0.00 | 0.00 | 0.00 | 76 | 1017.6 |
| 20260904160019 | 92 | 139 | 1.0 | 8.0 | 0.00 | 0.00 | 0.00 | 77 | 1017.5 |
| 20260904155820 | 92 | 217 | 1.0 | 8.0 | 0.00 | 0.00 | 0.00 | 78 | 1017.5 |
| 20260904155316 | 91 | 196 | 4.0 | 8.0 | 0.00 | 0.00 | 0.00 | 78 | 1017.5 |
| 20260904154834 | 91 | 191 | 2.0 | 5.0 | 0.00 | 0.00 | 0.00 | 80 | 1017.5 |
| 20260904154535 | 90 | 106 | 1.0 | 5.0 | 0.00 | 0.00 | 0.00 | 80 | 1017.3 |
| 20260904154330 | 90 | 120 | 2.0 | 5.0 | 0.00 | 0.00 | 0.00 | 81 | 1017.4 |